Location: Elbingen
(51.6167°N, 10.2333°E)
Time: 15:55:03
(UTC+00:00)

Daily predictions for brighter satellites

Satellite Brightness Start Highest point End
(mag) Time Altitude Azimuth Time Altitude Azimuth Time Altitude Azimuth
Cosmos 371 Rocket 3.6 16:54:19 10° SSW 16:59:07 72° WNW 17:03:57 10° NNE
ATLAS 5 CENTAUR R/B 2.1 16:56:48 10° SSW 17:00:51 42° ESE 17:05:22 10° NE
Timation 1 Rocket 4.5 16:55:37 10° SSW 17:01:37 85° WNW 17:07:38 10° NNE
Cosmos 304 Rocket 3.8 16:58:06 10° S 17:02:50 62° ESE 17:07:36 10° NNE
COBE Rocket 4.2 16:58:35 10° NNE 17:03:39 50° E 17:08:38 10° S
Unknown 4.4 17:00:38 10° SSW 17:04:26 36° SE 17:08:15 10° E
Unknown 4.4 17:00:51 10° SW 17:04:42 38° SSE 17:08:34 10° ENE
Cosmos 1184 Rocket 4.5 17:02:21 10° SW 17:05:30 38° WNW 17:08:38 10° N
BREEZE-M DEB (TANK) 3.5 17:02:12 10° W 17:06:12 79° S 17:15:14 10° ESE
Unknown 4.3 17:02:26 10° SW 17:06:18 39° SSE 17:10:10 10° ENE
Unknown 4.4 17:05:30 10° SW 17:09:20 37° SSE 17:13:08 10° E
Cosmos 1606 Rocket 3.8 17:07:27 10° SSE 17:11:40 47° E 17:15:52 10° NNE
Meteor 2-12 Rocket 4.4 17:06:15 10° N 17:12:26 79° ENE 17:18:36 10° SSE
Unknown 4.3 17:08:47 10° SW 17:12:39 39° SSE 17:16:21 11° E
Unknown 2.5 17:10:54 10° WNW 17:13:34 81° SSW 17:16:06 11° ESE
Unknown 4.3 17:10:30 10° SW 17:14:23 40° SSE 17:18:01 11° E
Cosmos 2285 Rocket 4.2 17:08:39 10° NNW 17:15:09 86° WSW 17:21:34 10° SSE
Unknown 4.2 17:12:04 10° SW 17:15:58 41° SSE 17:19:33 12° E
Cosmos 2263 Rocket 3.1 17:10:52 10° SW 17:16:23 51° NW 17:21:55 10° NNE
Cosmos 1758 Rocket 3.7 17:11:58 10° NNW 17:16:25 85° W 17:20:53 10° S
CSL-04 Rocket 3.7 17:12:01 10° SSE 17:17:30 64° ENE 17:22:57 10° N
Unknown 4.2 17:13:46 10° SW 17:17:41 42° SSE 17:21:12 12° E
SL-4 R/B 3.2 17:17:58 10° W 17:21:36 35° SSW 17:24:58 10° SE
Unknown 4.0 17:17:40 10° SW 17:21:36 47° SSE 17:25:00 13° E
Envisat 3.2 17:18:28 10° SSE 17:23:34 80° WSW 17:28:41 10° NNW
Cosmos 1271 Rocket 2.7 17:19:44 10° NNW 17:23:43 85° ENE 17:27:42 10° SSE
Gbstr 26 Del rocket 4.0 17:18:04 10° W 17:23:53 89° N 17:30:22 13° E
Unknown 4.1 17:20:18 10° SW 17:24:15 45° SSE 17:27:34 14° E
CZ-2D R/B 3.8 17:22:16 10° SE 17:25:51 38° ENE 17:29:28 10° N
Unknown 4.1 17:21:57 10° SW 17:25:55 46° SSE 17:29:10 15° E
Unknown 4.0 17:23:37 10° SW 17:27:36 47° SSE 17:30:47 15° E
Unknown 4.0 17:25:13 10° SW 17:29:12 48° SSE 17:32:19 16° E
Cosmos 1833 Rocket 3.3 17:24:03 10° NNW 17:29:16 37° NE 17:33:52 13° ESE
EO 1 Delta rocket 4.0 17:25:09 10° SSE 17:29:36 52° ENE 17:34:21 10° N
Unknown 4.0 17:26:52 10° SW 17:30:52 49° SSE 17:33:56 16° E
SKYMED 2 3.5 17:26:31 10° NNE 17:30:52 67° ESE 17:35:11 10° S
Cosmos 1626 4.0 17:28:17 10° NNW 17:31:44 36° W 17:35:09 10° SSW
Unknown 3.7 17:29:12 10° SW 17:33:12 61° SSE 17:36:13 17° ENE
Unknown 3.9 17:30:13 10° SW 17:34:15 51° SSE 17:37:11 17° E
Starlink (trailer) 3.9 17:31:51 10° SW 17:35:53 52° SSE 17:38:45 18° E
ARGOS 4.5 17:34:15 15° E 17:36:52 21° NE 17:40:48 10° N
Unknown 3.9 17:33:30 10° SW 17:37:33 53° SSE 17:40:22 18° E
Cosmos 1356 4.1 17:35:30 10° SSE 17:38:36 32° E 17:41:44 10° NNE
Unknown 3.9 17:35:07 10° SW 17:39:10 54° SSE 17:41:55 19° E
Cosmos 1703 3.4 17:35:23 10° N 17:39:16 53° ENE 17:43:07 10° SSE
YAOGAN 1 2.5 17:34:58 10° SSE 17:39:18 89° E 17:43:40 10° NNW
Cosmos 1953 2.5 17:36:01 10° SSW 17:40:04 80° W 17:44:11 10° N
Cosmos 1726 2.4 17:38:29 10° SSE 17:41:57 42° E 17:45:26 10° NNE
Cosmos 724 4.4 17:36:48 10° SW 17:42:57 90° NW 17:49:01 10° NE
CZ-4C R/B 4.1 17:36:46 10° NW 17:43:31 45° WSW 17:51:08 10° S
Cosmos 1461 3.6 17:39:49 10° NNW 17:43:32 34° NE 17:45:38 21° E
SJ-6B 4.2 17:44:01 19° ENE 17:44:24 19° ENE 17:47:07 10° NNE
FALCON 9 DEB 3.3 17:41:04 10° W 17:44:32 68° N 17:46:30 24° E
COSMOS 2406 3.2 17:39:29 10° NNW 17:45:19 79° ENE 17:51:05 10° SE
Unknown 3.7 17:41:42 10° SW 17:45:46 59° SSE 17:48:17 22° E
Unknown 3.8 17:41:44 10° SW 17:45:49 58° SSE 17:48:19 22° E
Unknown 3.7 17:42:31 10° SW 17:46:36 59° SSE 17:49:06 22° E
Cosmos 2082 Rocket 2.9 17:41:30 10° NNW 17:46:48 36° NE 17:50:13 19° ESE
Unknown 3.3 17:43:38 10° W 17:47:10 68° N 17:49:05 25° ENE
Unknown 3.7 17:46:34 10° SW 17:50:39 62° SSE 17:52:59 24° E
Unknown 3.7 17:46:42 10° SW 17:50:47 62° SSE 17:53:07 24° E
ASTEX 1 3.5 17:46:34 10° N 17:51:32 85° W 17:56:30 10° S
Unknown 3.7 17:48:26 10° WSW 17:52:33 65° SSE 17:54:50 25° E
IRS-1A Rocket 4.3 17:47:22 10° SE 17:52:45 58° ENE 17:58:10 10° N
Cosmos 1726 Rocket 3.6 17:49:30 10° SSW 17:53:55 84° W 17:58:20 10° N
Meteor 1-11 4.2 17:50:01 10° N 17:55:48 74° ENE 18:01:35 10° SSE
Unknown 3.6 17:51:44 10° WSW 17:55:51 67° SSE 17:58:00 27° E
Unknown 3.6 17:52:17 10° WSW 17:56:24 66° SSE 17:58:32 27° E
Unknown 3.1 17:53:26 10° W 17:56:51 70° N 17:58:15 32° E
Cosmos 1242 Rocket 2.7 17:53:12 10° NNW 17:56:54 76° WSW 18:00:34 10° S
Unknown 3.6 17:53:19 10° WSW 17:57:26 66° SSE 17:59:32 27° E
USA 186 4.0 18:02:29 11° NNE 18:02:29 11° NNE 18:02:35 10° NNE
Unknown 3.6 17:56:32 10° WSW 18:00:39 67° SSE 18:02:37 29° E
Shenzhou-11 Module 4.2 17:59:37 10° SSW 18:00:55 13° S 18:00:58 13° S
Unknown 2.8 17:59:03 10° WNW 18:02:10 78° SSW 18:03:09 40° ESE
Cosmos 2058 Rocket 2.9 17:59:27 10° S 18:03:48 83° E 18:08:11 10° NNE
Unknown 3.6 17:59:56 10° WSW 18:04:03 71° SSE 18:05:54 31° E
Cosmos 1939 Rocket 2.8 18:00:41 10° SSE 18:04:39 85° ENE 18:08:43 10° NNW
Unknown 3.6 18:01:35 10° WSW 18:05:43 72° SSE 18:07:30 32° E
Ariane Rocket 2.9 18:01:01 10° SSE 18:06:06 80° ENE 18:11:15 10° NNW
Falcon 9 debris 3.1 18:03:10 10° WNW 18:06:38 72° N 18:07:41 41° E
Cosmos 2228 3.6 18:02:54 10° SSW 18:07:14 60° WNW 18:11:34 10° N
Cosmos 1605 Rocket 3.9 18:01:01 10° N 18:07:18 82° E 18:13:27 10° SSE
Unknown 3.6 18:03:16 10° WSW 18:07:23 73° SSE 18:09:07 34° E
FREGAT/IRIS 3.8 18:08:35 27° NNE 18:08:35 27° NNE 18:10:14 10° N
Cosmos 1459 Rocket 4.5 18:02:38 10° N 18:08:19 37° ENE 18:11:19 24° ESE
Unknown 3.5 18:04:55 10° WSW 18:09:04 74° SSE 18:10:43 35° E
Lacrosse 5 rocket 3.2 18:06:09 10° WNW 18:09:15 24° SW 18:12:29 10° S
ATLAS CENTAUR R/B 3.9 18:07:28 10° NW 18:10:31 16° N 18:13:14 11° NE
Unknown 3.4 18:06:48 10° W 18:10:33 71° N 18:11:49 38° ENE
Unknown 3.2 18:07:16 10° W 18:10:46 71° N 18:11:44 44° ENE
SPOT 3 Rocket 4.0 18:09:12 27° ESE 18:11:27 40° ENE 18:16:18 10° N
Unknown 3.5 18:08:12 10° WSW 18:12:20 76° SSE 18:13:52 38° E
Unknown 3.4 18:08:34 10° W 18:12:29 80° N 18:13:52 38° ENE
Unknown 3.4 18:09:37 10° W 18:13:28 75° N 18:14:45 40° ENE
Unknown 3.5 18:09:57 10° WSW 18:14:05 78° SSE 18:15:33 39° E
Cosmos 1844 Rocket 3.0 18:09:08 10° SW 18:14:47 70° WNW 18:20:27 10° NNE
Unknown 3.5 18:11:34 10° WSW 18:15:42 79° SSE 18:17:06 40° E
Meteor 1-16 Rocket 4.3 18:10:08 10° SSW 18:15:43 78° WNW 18:21:11 10° N
Cosmos 1992 Rocket 4.5 18:11:18 10° SW 18:16:30 63° WNW 18:21:42 10° NNE
Meteor 2-10 3.8 18:11:30 10° S 18:16:37 86° E 18:21:40 10° NNE
Cosmos 1727 Rocket 4.1 18:11:07 10° SSE 18:17:02 51° E 18:22:59 10° NNE
Unknown 3.5 18:13:09 10° WSW 18:17:18 79° SSE 18:18:38 42° E
Unknown 3.5 18:13:44 10° WSW 18:17:53 80° SSE 18:19:12 42° E
COSMO-SKYMED 1 3.8 18:14:47 10° N 18:18:56 44° WNW 18:23:03 10° SW
Cosmos 921 Rocket 3.2 18:14:29 10° SSW 18:18:59 79° WNW 18:23:29 10° NNE
Unknown 3.5 18:16:20 10° WSW 18:20:29 79° SSE 18:21:40 45° E
Resurs 01 Rocket 3.2 18:21:45 20° NE 18:21:45 20° NE 18:24:16 10° N
Cosmos 1908 3.1 18:17:39 10° S 18:21:34 81° E 18:25:30 10° NNE
MONITOR-E 4.1 18:22:47 60° N 18:22:47 60° N 18:25:11 10° NNW
Cosmos 1777 Rocket 4.1 18:17:54 10° NNW 18:23:09 79° WSW 18:27:47 13° SSE
Unknown 3.5 18:19:42 10° WSW 18:23:51 81° SSE 18:24:54 49° E
CZ-4 R/B 3.7 18:20:18 10° SSW 18:23:52 27° W 18:27:30 10° NW
Unknown 3.5 18:21:18 10° WSW 18:25:27 82° SSE 18:26:27 51° E
Unknown 3.5 18:23:13 10° WSW 18:27:23 86° SSE 18:28:19 53° ENE
Unknown 3.5 18:24:37 10° WSW 18:28:47 84° SSE 18:29:38 55° E
Cosmos 2173 Rocket 4.1 18:23:04 10° N 18:29:13 51° ENE 18:31:57 31° SE
H-2A R/B 2.3 18:28:31 38° ESE 18:30:01 48° ENE 18:35:12 10° N
Cosmos 2084 3.6 18:25:50 10° SW 18:30:22 75° NW 18:32:39 28° NE
Unknown 3.5 18:26:19 10° WSW 18:30:28 85° SSE 18:31:16 57° E
Cosmos 2278 Rocket 2.3 18:25:25 10° S 18:30:50 48° ESE 18:34:56 17° NE
SJ 16-02 3.0 18:29:56 10° N 18:32:31 21° NNE 18:32:31 21° NNE
Unknown 3.5 18:29:37 10° WSW 18:33:47 87° SSE 18:34:26 62° E
NOSS 3-3 (A) 4.4 18:27:04 10° NW 18:34:20 72° NE 18:38:16 33° ESE
Cosmos 1844 4.1 18:28:43 10° SW 18:34:24 65° NW 18:40:11 10° NNE
NOSS 3-3 (C) 4.4 18:27:10 10° NW 18:34:25 71° NE 18:38:20 33° ESE
Lacrosse 5 1.8 18:29:28 10° WNW 18:34:33 76° NNE 18:35:56 48° E
HJ-1C 3.9 18:33:05 26° S 18:34:47 59° W 18:38:08 10° NNW
Unknown 3.5 18:31:19 10° WSW 18:35:29 88° SSE 18:36:05 64° ENE
Unknown 3.5 18:32:59 10° WSW 18:37:08 89° SSE 18:37:40 67° ENE
Unknown 3.5 18:34:40 10° WSW 18:38:49 90° SE 18:39:18 69° ENE
Unknown 3.4 18:37:58 10° WSW 18:42:08 88° NNW 18:42:28 75° ENE
Unknown 3.5 18:39:38 10° WSW 18:43:48 87° NNW 18:44:05 77° ENE
Unknown 3.5 18:39:56 10° WSW 18:44:06 84° NNW 18:44:23 76° NE
Cosmos 292 Rocket 3.8 18:40:43 10° SSW 18:45:28 77° WNW 18:50:15 10° NNE
ATLAS 5 CENTAUR R/B 2.7 18:41:13 10° WSW 18:45:29 43° NNW 18:48:44 19° NNE
Cosmos 1725 Rocket 4.4 18:39:41 10° N 18:45:32 39° ENE 18:45:49 39° ENE
Unknown 3.5 18:41:32 10° WSW 18:45:42 84° NNW 18:45:55 79° NE
CZ-2C R/B 3.6 18:45:55 44° E 18:46:33 46° ENE 18:52:04 10° N
Cosmos 2100 Rocket 3.9 18:40:35 10° N 18:46:49 70° ENE 18:49:41 33° SSE
Unknown 3.5 18:44:33 10° WSW 18:48:43 85° NNW 18:48:47 84° NNE
Cosmos 967 Rocket 4.4 18:44:57 10° NW 18:51:26 85° NE 18:53:41 44° SE
Unknown 3.5 18:47:54 10° WSW 18:52:00 83° NW 18:52:00 83° NW
Cosmos 2058 3.2 18:47:54 10° N 18:51:28 57° NNE 18:51:28 57° NNE
Unknown 3.6 18:49:38 10° W 18:53:41 81° NW 18:53:41 81° NW
Unknown 3.6 18:51:14 10° W 18:55:12 79° WNW 18:55:12 79° WNW
Unknown 3.7 18:52:57 10° W 18:56:52 76° WNW 18:56:52 76° WNW
Unknown 3.8 18:56:49 10° W 19:00:29 67° WNW 19:00:29 67° WNW
Unknown 3.9 18:59:35 10° W 19:03:13 65° WNW 19:03:13 65° WNW
Cosmos 1898 Rocket 3.7 18:59:17 10° NNW 19:04:08 55° NE 19:04:08 55° NE
Unknown 4.0 19:01:15 10° W 19:04:49 63° WNW 19:04:49 63° WNW
Unknown 4.1 19:02:56 10° W 19:06:26 60° WNW 19:06:26 60° WNW
Cosmos 1812 Rocket 3.7 19:07:07 70° WSW 19:07:27 75° W 19:11:57 10° N
Unknown 4.1 19:04:33 10° W 19:07:58 58° WNW 19:07:58 58° WNW
Unknown 4.2 19:06:14 10° W 19:09:35 56° W 19:09:35 56° W
Gbstr 26 Del rocket 4.3 19:04:53 10° WNW 19:11:11 64° SSW 19:12:54 50° SSE
Unknown 4.4 19:08:22 10° W 19:11:30 50° WNW 19:11:30 50° WNW
Cosmos 2016 Rocket 3.9 19:06:15 10° N 19:12:30 70° ENE 19:13:08 65° ESE
Cosmos 1833 Rocket 3.3 19:07:57 10° NW 19:13:24 51° WSW 19:15:36 33° SSW
Unknown 4.4 19:09:37 10° W 19:12:51 52° W 19:12:51 52° W
Starlink (trailer) 4.4 19:11:16 10° W 19:14:25 50° W 19:14:25 50° W
ARGOS 3.1 19:15:47 68° S 19:16:31 84° WSW 19:21:59 10° NNW
SL-08 R/B 4.4 19:10:37 10° N 19:16:36 64° ENE 19:16:36 64° ENE
SJ-6B 4.0 19:19:40 40° WNW 19:19:40 40° WNW 19:22:30 10° NNW
Cosmos 2061 Rocket 3.8 19:12:47 10° N 19:19:08 81° E 19:19:53 69° SE
Cosmos 1461 4.1 19:18:51 10° NW 19:22:03 39° W 19:22:03 39° W
Cosmos 2084 Rocket 4.3 19:20:04 10° NW 19:23:22 49° NW 19:23:22 49° NW
ADEOS Rocket 3.4 19:18:52 10° NNE 19:26:43 82° ESE 19:34:09 10° SSW
Cosmos 2082 Rocket 2.7 19:25:35 10° NW 19:31:09 53° WSW 19:32:05 48° SW
Terra 4.4 19:51:08 12° NNE 19:51:08 12° NNE 19:51:32 10° N
ATLAS CENTAUR R/B 3.8 19:47:15 10° NNW 19:49:25 20° N 19:49:25 20° N
USA 238 DEB 4.3 19:48:59 10° SW 19:53:10 42° SW 19:53:10 42° SW
USA 238 4.4 19:49:06 10° SW 19:53:11 41° SW 19:53:11 41° SW
Resurs 01 Rocket 3.5 19:59:19 27° NNW 19:59:19 27° NNW 20:01:27 10° NNW
H-2A R/B 3.6 20:09:10 31° WSW 20:09:38 31° W 20:14:25 10° NNW
SJ 16-02 3.7 20:08:02 10° NNW 20:09:32 21° NW 20:09:32 21° NW
Cosmos 2278 Rocket 3.4 20:09:46 10° WSW 20:15:04 39° NW 20:16:57 31° N
Lacrosse 5 3.8 20:12:43 10° WNW 20:15:08 24° W 20:15:08 24° W
ATLAS 5 CENTAUR R/B 4.1 20:27:30 10° WNW 20:30:17 22° NNW 20:30:17 22° NNW
